LiveATC.Net - Listen to live air traffic control over the Internet!


ICAO: KGAI  IATA: GAI   Airport: Montgomery County Airpark
City: Gaithersburg   State/Province: Maryland
Country: United States   Continent: North America
KGAI METAR Weather: KGAI 281015Z AUTO 00000KT 3SM OVC003 16/14 A3001 RMK AO1
KGAI Flight Activity (FlightAware)
KGAI Airport Info   (AirNav) (iFlightPlanner)
KGAI VFR Sectional Chart   (iFlightPlanner) 
KGAI IFR Low Chart   (iFlightPlanner) 
KGAI CTAF/UNICOM
Feed Status: UP   Listeners: 0
Listen right in your browser - requires Flash (in browser, requires Flash)
Click here to listen with your own player (launches your MP3 player)
KGAI CTAF/UNICOM Audio Archives
FacilityFrequency
Gaithersburg CTAF123.075

Feed sponsored by:

NOTICE

Unauthorized use prohibited. See LiveATC.net Terms of Service


Find LiveATC Audio Streams


Airport/ARTCC Code

Frequency
(e.g., 124.400, 128.75)
Site-wide search

Browse LiveATC Feeds
LiveATC Coverage Map
Top 50 LiveATC Feeds
Bad Weather Areas

LiveATC FAQ
Offer a LiveATC Feed
Contact LiveATC.net
Press Inquiries

LiveATC on iPhone
LiveATC on Android

Windows Phone
Windows 8/10

LiveATC Mobile
(Mobile browser)

ATC Audio Archives
Interesting Recordings

LiveATC Forums


Home Page
About LiveATC.net
Make a Donation
LiveATC Store

Terms of Use
Privacy Policy

Canadian Air Freqs

AIRMETs/SIGMETs

FAA Airport Status
Nat'l Airspace Status
Arrival Demand Charts


Server Software By:
Icecast.org
Liquidsoap